EROS B

Last updated on Thu Oct 30 2025 00:02:30 GMT+0000 (Coordinated Universal Time)

1 29079U 06014A 25302.52367591 .00098991 00000+0 14361-2 0 9990 2 29079 97.3506 57.4581 0006100 266.4776 93.5781 15.55474753 83903
UTC large
Height (km)
Speed (km/s)
/
Latitude / Longitude
Inclination (degrees)
Orbital Period (minutes)
Azimuth
Elevation
Range (km)
Doppler Factor

Next 0 passes for location: London (51.5072 / 0.1276)

Sorry there are no passes over London.